Location: Linz
(48.3300°N, 14.3000°E)
Time: 03:12:35
(UTC+02:00)

Vanguard 1 - Visible Passes

Search period start: 18 August 2018 00:00
Search period end: 28 August 2018 00:00
Orbit: 650 x 3833 km, 34.3° (Epoch: 17 August)

Date Brightness Start Highest point End Pass type
(mag) Time Alt. Az. Time Alt. Az. Time Alt. Az.
18 Aug 12.8 21:20:07 10° W 21:31:26 22° SW 21:39:16 10° S visible
19 Aug 13.0 21:42:43 10° W 21:51:28 17° SW 21:58:03 10° SSW visible
20 Aug 13.2 22:06:48 10° WSW 22:11:21 12° WSW 22:15:16 10° SW visible
22 Aug 13.1 20:18:22 10° W 20:32:48 26° SW 20:42:51 10° S visible
23 Aug 13.3 20:40:47 10° W 20:52:51 20° SW 21:01:48 10° S visible
24 Aug 13.5 21:04:07 10° W 21:12:45 15° SW 21:19:44 10° SSW visible
